カタログに戻る

FENGYUN 1C DEB

LostPO
NORAD 30973·DEBRIS·🇨🇳 China

打ち上げ May 10, 1999 から Taiyuan Satellite Launch Center

Loading…

次のパス (今後24時間)

TLE

古いSource: Space-Track

元期: Mar 8, 2021, 05:33 UTC

1 30973U 99025BBP 21067.23161498  .00000631  00000-0  34613-3 0  9997
2 30973  99.7677 169.3375 0105488  84.5598 276.8205 14.13122784720280

AllMySatでFENGYUN 1C DEBをリアルタイム追跡

Download on the App Store